When you browse on this site, cookies collect data to enhance your experience and personalize the content and advertising you see.
Visit our Privacy Policy to learn more. By continuing to use the site, you agree to this use of cookies and data.
  • In France
  • List of Countries
  • For 7 days
  • Water Temperature
  • Satellite Maps
  • Weather Map
  • Weather Widgets
  • user-avatar
    Login

    Hourly Weather Wangkui

    Today, 20 July, Saturday

    Time Temperature Precipitation Wind Pressure Humidity
    00:00 +24°C° 0 mm 3 mps 740 mmHg 85%
    01:00 +24°C° 0 mm 3 mps 740 mmHg 86%
    02:00 +22°C° 0 mm 3 mps 740 mmHg 88%
    03:00 +22°C° 0 mm 3 mps 740 mmHg 88%
    04:00 +22°C° 0 mm 3 mps 740 mmHg 88%
    05:00 +22°C° 0 mm 3 mps 740 mmHg 88%
    06:00 +25°C° 0 mm 3 mps 740 mmHg 83%
    07:00 +26°C° 0 mm 4 mps 740 mmHg 78%
    08:00 +28°C° 0 mm 4 mps 740 mmHg 74%
    09:00 +29°C° 0.2 mm 4 mps 739 mmHg 70%
    10:00 +32°C° 0.2 mm 4 mps 739 mmHg 66%
    11:00 +33°C° 0.2 mm 4 mps 739 mmHg 62%
    12:00 +33°C° 0.4 mm 4 mps 738 mmHg 64%
    13:00 +32°C° 0.4 mm 4 mps 738 mmHg 66%
    14:00 +32°C° 0 mm 4 mps 738 mmHg 66%
    15:00 +32°C° 0.2 mm 4 mps 738 mmHg 68%
    16:00 +31°C° 0.2 mm 3 mps 737 mmHg 70%
    17:00 +31°C° 0.2 mm 3 mps 737 mmHg 72%
    18:00 +30°C° 0 mm 3 mps 737 mmHg 75%
    19:00 +28°C° 0 mm 2 mps 737 mmHg 77%
    20:00 +27°C° 0 mm 2 mps 737 mmHg 80%
    21:00 +27°C° 0.1 mm 3 mps 737 mmHg 81%
    22:00 +26°C° 0.1 mm 3 mps 737 mmHg 82%
    23:00 +26°C° 0.1 mm 3 mps 737 mmHg 83%

    Tomorrow, 21 July, Sunday

    Time Temperature Precipitation Wind Pressure Humidity
    00:00 +25°C° 0.5 mm 3 mps 736 mmHg 85%
    01:00 +25°C° 0.5 mm 3 mps 736 mmHg 87%
    02:00 +25°C° 0.5 mm 3 mps 736 mmHg 89%
    03:00 +24°C° 1.3 mm 3 mps 736 mmHg 90%
    04:00 +24°C° 1.3 mm 3 mps 736 mmHg 92%
    05:00 +24°C° 1.3 mm 3 mps 736 mmHg 93%
    06:00 +25°C° 0.7 mm 3 mps 736 mmHg 91%
    07:00 +26°C° 0.7 mm 4 mps 737 mmHg 88%
    08:00 +27°C° 0.7 mm 4 mps 737 mmHg 86%
    09:00 +27°C° 0.7 mm 4 mps 737 mmHg 85%
    10:00 +28°C° 0.7 mm 5 mps 737 mmHg 83%
    11:00 +29°C° 0.7 mm 5 mps 737 mmHg 82%
    12:00 +28°C° 0.4 mm 5 mps 737 mmHg 83%
    13:00 +28°C° 0.4 mm 4 mps 737 mmHg 85%
    14:00 +27°C° 0.4 mm 4 mps 736 mmHg 86%
    15:00 +27°C° 0.7 mm 4 mps 736 mmHg 87%
    16:00 +26°C° 0.7 mm 4 mps 736 mmHg 88%
    17:00 +26°C° 0.7 mm 4 mps 736 mmHg 89%
    18:00 +25°C° 0.5 mm 4 mps 736 mmHg 91%
    19:00 +23°C° 0.5 mm 4 mps 737 mmHg 94%
    20:00 +23°C° 0.5 mm 4 mps 737 mmHg 96%
    21:00 +24°C° 0 mm 3 mps 737 mmHg 97%
    22:00 +22°C° 0 mm 3 mps 737 mmHg 97%
    23:00 +23°C° 0 mm 2 mps 736 mmHg 97%

    Day after tomorrow, 22 July, Monday

    Time Temperature Precipitation Wind Pressure Humidity
    00:00 +22°C° 0.1 mm 3 mps 736 mmHg 97%
    01:00 +21°C° 0.1 mm 3 mps 736 mmHg 97%
    02:00 +21°C° 0.1 mm 3 mps 736 mmHg 97%
    03:00 +21°C° 0.1 mm 3 mps 736 mmHg 97%
    04:00 +21°C° 0.1 mm 3 mps 736 mmHg 97%
    05:00 +21°C° 0.1 mm 3 mps 736 mmHg 97%
    06:00 +22°C° 0 mm 3 mps 736 mmHg 95%
    07:00 +24°C° 0 mm 2 mps 736 mmHg 92%
    08:00 +25°C° 0 mm 2 mps 736 mmHg 89%
    09:00 +27°C° 0.1 mm 2 mps 736 mmHg 83%
    10:00 +28°C° 0.1 mm 2 mps 735 mmHg 77%
    11:00 +30°C° 0.1 mm 2 mps 735 mmHg 71%
    12:00 +31°C° 0 mm 2 mps 735 mmHg 65%
    13:00 +32°C° 0 mm 2 mps 734 mmHg 59%
    14:00 +34°C° 0 mm 2 mps 734 mmHg 53%
    15:00 +34°C° 0 mm 2 mps 733 mmHg 57%
    16:00 +32°C° 0 mm 2 mps 733 mmHg 62%
    17:00 +32°C° 0 mm 2 mps 733 mmHg 66%
    18:00 +31°C° 0.1 mm 2 mps 733 mmHg 68%
    19:00 +29°C° 0.1 mm 3 mps 733 mmHg 70%
    20:00 +28°C° 0.1 mm 3 mps 733 mmHg 73%
    21:00 +27°C° 0.2 mm 3 mps 733 mmHg 78%
    22:00 +26°C° 0.2 mm 3 mps 733 mmHg 84%
    23:00 +25°C° 0.2 mm 3 mps 732 mmHg 89%

    23 July, Tuesday

    Time Temperature Precipitation Wind Pressure Humidity
    00:00 +25°C° 0 mm 3 mps 732 mmHg 89%
    01:00 +24°C° 0 mm 3 mps 732 mmHg 90%
    02:00 +24°C° 0 mm 3 mps 732 mmHg 90%
    03:00 +22°C° 0 mm 3 mps 732 mmHg 90%
    04:00 +23°C° 0 mm 2 mps 732 mmHg 90%
    05:00 +21°C° 0 mm 2 mps 732 mmHg 90%
    06:00 +24°C° 0 mm 2 mps 733 mmHg 84%
    07:00 +25°C° 0 mm 2 mps 733 mmHg 79%
    08:00 +26°C° 0 mm 2 mps 734 mmHg 73%
    09:00 +26°C° 0 mm 3 mps 734 mmHg 72%
    10:00 +27°C° 0 mm 3 mps 734 mmHg 70%
    11:00 +27°C° 0 mm 3 mps 734 mmHg 69%
    12:00 +28°C° 0 mm 4 mps 734 mmHg 68%
    13:00 +28°C° 0 mm 4 mps 734 mmHg 68%
    14:00 +28°C° 0 mm 4 mps 734 mmHg 67%
    15:00 +26°C° 0.7 mm 3 mps 734 mmHg 77%
    16:00 +24°C° 0.7 mm 3 mps 734 mmHg 86%
    17:00 +21°C° 0.7 mm 2 mps 734 mmHg 96%
    18:00 +21°C° 2.2 mm 2 mps 734 mmHg 96%
    19:00 +21°C° 2.2 mm 2 mps 734 mmHg 97%
    20:00 +21°C° 2.2 mm 2 mps 735 mmHg 98%
    21:00 +21°C° 0.6 mm 2 mps 734 mmHg 97%
    22:00 +21°C° 0.6 mm 3 mps 733 mmHg 97%
    23:00 +21°C° 0.6 mm 4 mps 733 mmHg 97%

    24 July, Wednesday

    Time Temperature Precipitation Wind Pressure Humidity
    00:00 +21°C° 0.8 mm 4 mps 732 mmHg 97%
    01:00 +21°C° 0.8 mm 4 mps 732 mmHg 97%
    02:00 +21°C° 0.8 mm 4 mps 732 mmHg 97%
    03:00 +21°C° 5 mm 4 mps 731 mmHg 97%
    04:00 +21°C° 5 mm 4 mps 731 mmHg 97%
    05:00 +20°C° 5 mm 4 mps 730 mmHg 97%
    06:00 +21°C° 1.5 mm 4 mps 730 mmHg 97%
    07:00 +21°C° 1.5 mm 3 mps 730 mmHg 97%
    08:00 +21°C° 1.5 mm 3 mps 730 mmHg 97%
    09:00 +23°C° 0.6 mm 2 mps 730 mmHg 95%
    10:00 +24°C° 0.6 mm 2 mps 730 mmHg 93%
    11:00 +25°C° 0.6 mm 1 mps 730 mmHg 90%
    12:00 +25°C° 1.5 mm 2 mps 730 mmHg 89%
    13:00 +26°C° 1.5 mm 3 mps 730 mmHg 88%
    14:00 +26°C° 1.5 mm 4 mps 730 mmHg 87%
    15:00 +25°C° 0.4 mm 5 mps 730 mmHg 88%
    16:00 +23°C° 0.4 mm 6 mps 731 mmHg 89%
    17:00 +22°C° 0.4 mm 6 mps 731 mmHg 90%
    18:00 +21°C° 0 mm 6 mps 731 mmHg 89%
    19:00 +20°C° 0 mm 6 mps 732 mmHg 88%
    20:00 +19°C° 0 mm 5 mps 732 mmHg 87%
    21:00 +19°C° 0 mm 5 mps 732 mmHg 86%
    22:00 +19°C° 0 mm 5 mps 733 mmHg 85%
    23:00 +17°C° 0 mm 5 mps 733 mmHg 84%

    25 July, Thursday

    Time Temperature Precipitation Wind Pressure Humidity
    00:00 +17°C° 0 mm 5 mps 733 mmHg 84%
    01:00 +17°C° 0 mm 5 mps 733 mmHg 83%
    02:00 +17°C° 0 mm 5 mps 734 mmHg 83%
    03:00 +17°C° 0 mm 5 mps 734 mmHg 84%
    04:00 +16°C° 0 mm 5 mps 734 mmHg 85%
    05:00 +17°C° 0 mm 4 mps 735 mmHg 86%
    06:00 +16°C° 0 mm 5 mps 735 mmHg 86%
    07:00 +17°C° 0 mm 5 mps 736 mmHg 85%
    08:00 +17°C° 0 mm 5 mps 736 mmHg 84%
    09:00 +17°C° 0 mm 5 mps 736 mmHg 84%
    10:00 +19°C° 0 mm 5 mps 737 mmHg 83%
    11:00 +19°C° 0 mm 5 mps 737 mmHg 82%
    12:00 +19°C° 0 mm 5 mps 737 mmHg 80%
    13:00 +20°C° 0 mm 4 mps 737 mmHg 79%
    14:00 +21°C° 0 mm 4 mps 738 mmHg 77%
    15:00 +20°C° 0.1 mm 4 mps 738 mmHg 79%
    16:00 +20°C° 0.1 mm 3 mps 738 mmHg 80%
    17:00 +20°C° 0.1 mm 3 mps 738 mmHg 82%
    18:00 +19°C° 0 mm 2 mps 738 mmHg 85%
    19:00 +18°C° 0 mm 2 mps 739 mmHg 88%
    20:00 +17°C° 0 mm 2 mps 739 mmHg 91%
    21:00 +16°C° 0 mm 1 mps 739 mmHg 92%
    22:00 +15°C° 0 mm 1 mps 739 mmHg 93%
    23:00 +13°C° 0 mm 0 mps 740 mmHg 94%
    Show more